TimeCDT,TemperatureF,Dew PointF,Humidity,Sea Level PressureIn,VisibilityMPH,Wind Direction,Wind SpeedMPH,Gust SpeedMPH,PrecipitationIn,Events,Conditions,WindDirDegrees,DateUTC
12:52 AM,60.1,53.1,78,29.89,10.0,Calm,Calm,-,N/A,,Clear,0,2013-06-11 05:52:00
1:52 AM,57.9,55.0,90,29.92,10.0,SSE,4.6,-,N/A,,Clear,160,2013-06-11 06:52:00
2:52 AM,60.1,55.0,83,29.87,10.0,NNE,5.8,-,N/A,,Clear,30,2013-06-11 07:52:00
3:52 AM,59.0,54.0,83,29.88,10.0,NE,4.6,-,N/A,,Clear,40,2013-06-11 08:52:00
4:52 AM,57.0,53.1,87,29.88,10.0,NE,4.6,-,N/A,,Clear,50,2013-06-11 09:52:00
5:52 AM,57.0,54.0,89,29.88,10.0,NE,6.9,-,N/A,,Clear,40,2013-06-11 10:52:00
6:52 AM,57.9,54.0,87,29.93,10.0,SSE,5.8,-,N/A,,Clear,160,2013-06-11 11:52:00
7:52 AM,59.0,55.9,90,29.93,9.0,Calm,Calm,-,N/A,,Clear,0,2013-06-11 12:52:00
8:52 AM,62.1,55.0,78,29.92,10.0,East,3.5,-,N/A,,Clear,90,2013-06-11 13:52:00
9:52 AM,66.0,55.9,70,29.93,10.0,SSE,5.8,-,N/A,,Clear,150,2013-06-11 14:52:00
10:52 AM,71.1,53.1,53,29.92,10.0,SE,8.1,-,N/A,,Clear,130,2013-06-11 15:52:00
11:52 AM,73.0,50.0,44,29.92,10.0,ESE,5.8,-,N/A,,Clear,110,2013-06-11 16:52:00
12:52 PM,75.0,48.9,40,29.93,10.0,SE,8.1,-,N/A,,Scattered Clouds,140,2013-06-11 17:52:00
1:52 PM,75.0,48.0,38,29.93,10.0,ESE,8.1,-,N/A,,Overcast,110,2013-06-11 18:52:00
2:52 PM,77.0,50.0,39,29.92,10.0,NE,8.1,-,N/A,,Mostly Cloudy,40,2013-06-11 19:52:00
3:52 PM,77.0,51.1,40,29.91,10.0,East,11.5,-,N/A,,Partly Cloudy,90,2013-06-11 20:52:00
4:52 PM,77.0,52.0,42,29.89,10.0,East,13.8,-,N/A,,Clear,100,2013-06-11 21:52:00
5:52 PM,75.9,51.1,42,29.89,10.0,East,10.4,-,N/A,,Clear,80,2013-06-11 22:52:00
6:52 PM,73.9,52.0,46,29.89,10.0,East,10.4,-,N/A,,Overcast,90,2013-06-11 23:52:00
7:52 PM,72.0,53.1,51,29.88,10.0,ESE,6.9,-,N/A,,Overcast,110,2013-06-12 00:52:00
8:52 PM,70.0,55.9,61,29.88,10.0,East,5.8,-,N/A,,Overcast,100,2013-06-12 01:52:00
9:52 PM,68.0,55.0,63,29.87,10.0,East,9.2,-,N/A,,Mostly Cloudy,90,2013-06-12 02:52:00
10:36 PM,68.0,57.9,70,29.92,10.0,Calm,Calm,-,0.00,Thunderstorm,Thunderstorm,0,2013-06-12 03:36:00
10:52 PM,66.0,60.1,81,29.91,9.0,ENE,6.9,-,0.01,Rain-Thunderstorm,Thunderstorms and Rain,70,2013-06-12 03:52:00
11:48 PM,62.6,59.0,88,29.91,8.0,ENE,10.4,-,0.14,Rain,Light Rain,70,2013-06-12 04:48:00
11:52 PM,63.0,59.0,87,29.88,9.0,ENE,13.8,-,0.15,Rain,Light Rain,70,2013-06-12 04:52:00